Total_Precipitation_Accumulation
0.03 0.04 0.05 0.06 0.06 0.09 0.10 0.11 0.17 0.22 0.25 0.31 0.44 0.65 0.85 0.90 1.07 1.16 1.32 1.39 1.68 1.81 1.92 2.25 2.72 3.10 3.53 3.60 3.69 3.67 3.76 3.95 4.11 4.26 4.21 4.32 4.28 4.23 4.42 4.58 4.62 4.75 4.82 4.64
0.04 0.03 0.03 0.03 0.03 0.07 0.11 0.12 0.23 0.34 0.35 0.41 0.52 0.71 0.92 1.03 1.02 1.24 1.51 1.58 2.07 2.20 2.12 2.29 2.76 3.15 3.52 3.76 3.85 3.99 4.10 4.09 4.22 4.65 5.06 5.35 5.61 5.60 5.51 5.59 5.61 5.45 5.31 5.23
0.04 0.03 0.02 0.03 0.04 0.08 0.14 0.16 0.26 0.41 0.39 0.50 0.65 1.06 1.18 1.15 1.15 1.32 1.63 1.75 2.10 2.27 2.36 2.21 2.34 2.76 3.20 3.54 3.76 3.87 4.11 4.43 4.92 5.50 5.93 6.23 6.49 6.54 6.32 6.09 5.97 5.69 5.45 5.32
0.05 0.03 0.03 0.04 0.06 0.07 0.13 0.13 0.20 0.28 0.39 0.58 0.62 1.21 1.42 1.36 1.43 1.54 1.68 1.70 1.89 1.89 2.10 2.23 2.26 2.50 2.86 3.16 3.47 3.78 4.08 4.65 5.51 6.15 6.59 6.94 7.01 6.93 6.76 6.53 6.15 5.64 5.26 4.94
0.06 0.05 0.05 0.05 0.04 0.04 0.07 0.09 0.15 0.20 0.28 0.45 0.53 1.03 1.40 1.38 1.56 1.71 1.89 1.80 1.77 1.86 1.82 1.92 2.01 2.19 2.58 2.94 3.24 3.61 3.99 4.64 5.31 5.92 6.50 6.91 7.00 6.90 6.68 6.22 5.70 5.13 4.66 4.25
0.06 0.04 0.04 0.03 0.03 0.03 0.05 0.10 0.19 0.27 0.43 0.68 0.57 0.88 1.49 1.65 1.81 1.99 1.98 1.99 2.17 2.09 1.91 1.86 1.83 1.91 2.15 2.52 2.84 3.27 3.67 4.19 4.79 5.17 5.67 6.04 6.19 6.06 5.68 5.16 4.55 4.13 3.82 3.52
0.09 0.06 0.04 0.04 0.04 0.05 0.07 0.18 0.50 0.64 0.74 0.80 0.56 0.94 1.67 1.87 1.85 2.01 2.09 2.15 2.29 2.22 2.07 1.92 1.85 1.85 1.98 2.24 2.54 2.81 3.05 3.48 3.81 4.14 4.57 4.83 4.81 4.60 4.33 4.05 3.80 3.38 2.98 2.64
0.19 0.15 0.08 0.06 0.07 0.08 0.08 0.16 0.52 0.84 0.81 0.78 0.84 1.45 2.04 1.97 1.80 1.78 1.90 2.02 2.07 1.95 1.87 1.80 1.78 1.87 1.94 1.94 2.13 2.31 2.40 2.63 2.84 3.01 3.19 3.20 3.16 3.09 3.05 2.91 2.65 2.35 2.03 1.73
0.28 0.22 0.09 0.06 0.05 0.06 0.09 0.15 0.22 0.42 0.52 0.85 1.35 1.89 2.28 2.02 1.92 1.88 1.75 1.62 1.76 1.75 1.66 1.69 1.76 1.84 1.86 1.80 1.79 1.88 1.90 1.91 1.98 2.03 2.14 2.16 2.11 2.11 2.09 2.02 1.87 1.68 1.56 1.37
0.24 0.23 0.13 0.07 0.06 0.08 0.10 0.13 0.22 0.42 0.84 1.15 1.52 2.03 2.53 2.46 2.37 2.33 2.05 1.71 1.78 1.78 1.74 1.67 1.62 1.67 1.73 1.64 1.63 1.71 1.74 1.60 1.54 1.48 1.47 1.46 1.52 1.53 1.54 1.50 1.38 1.31 1.27 1.19
0.21 0.24 0.20 0.12 0.14 0.16 0.14 0.17 0.26 0.45 0.67 1.11 1.75 2.37 2.34 2.57 2.67 2.51 2.17 1.84 1.83 1.76 1.75 1.76 1.68 1.55 1.53 1.51 1.52 1.44 1.43 1.39 1.32 1.25 1.22 1.17 1.13 1.12 1.11 1.05 1.00 0.99 0.99 0.96
0.21 0.26 0.31 0.20 0.15 0.15 0.18 0.22 0.27 0.56 0.67 0.79 1.50 2.41 2.37 2.63 2.74 2.54 2.40 2.16 1.96 1.94 1.84 1.73 1.66 1.55 1.52 1.40 1.36 1.30 1.25 1.19 1.12 1.11 1.11 1.01 0.94 0.94 0.98 0.95 0.88 0.82 0.82 0.80
0.22 0.39 0.60 0.68 0.53 0.30 0.22 0.21 0.26 0.35 0.53 0.84 1.48 2.38 2.46 2.48 2.37 2.28 2.18 2.14 2.21 2.29 2.09 1.84 1.67 1.45 1.33 1.18 1.10 1.08 1.07 1.02 1.00 1.04 1.07 1.03 0.96 0.91 0.87 0.84 0.76 0.70 0.72 0.72
0.21 0.41 0.77 1.23 0.97 0.50 0.33 0.30 0.33 0.40 0.71 1.02 1.32 1.92 2.22 2.36 2.39 2.42 2.38 2.36 2.26 1.99 1.68 1.54 1.44 1.26 1.15 1.06 1.03 0.96 0.91 0.90 0.91 0.96 1.05 1.07 1.00 0.92 0.83 0.80 0.81 0.75 0.70 0.67
0.26 0.49 0.54 0.57 0.48 0.37 0.35 0.35 0.40 0.48 0.60 0.94 1.23 1.74 2.17 2.35 2.46 2.35 2.39 2.30 1.95 1.71 1.59 1.51 1.43 1.34 1.19 1.06 0.95 0.84 0.80 0.81 0.80 0.88 0.93 0.90 0.86 0.85 0.78 0.74 0.77 0.73 0.70 0.66
0.30 0.56 0.53 0.50 0.42 0.45 0.52 0.51 0.55 0.55 0.65 0.89 1.24 1.81 2.11 2.33 2.41 2.31 2.31 2.15 1.99 1.88 1.77 1.68 1.62 1.50 1.30 1.08 0.97 0.90 0.87 0.86 0.82 0.84 0.86 0.78 0.72 0.71 0.67 0.68 0.65 0.60 0.63 0.68
0.36 0.58 0.72 0.66 0.43 0.65 1.07 0.83 0.73 0.83 0.85 1.12 1.52 1.78 1.75 1.85 1.97 2.07 2.12 2.11 2.01 1.93 1.88 1.84 1.81 1.70 1.49 1.28 1.18 1.07 1.01 0.88 0.82 0.82 0.78 0.75 0.74 0.71 0.67 0.64 0.64 0.62 0.64 0.68
0.38 0.62 0.72 0.76 0.86 1.48 1.43 0.90 0.80 0.92 1.05 1.04 1.20 1.32 1.38 1.43 1.58 1.68 1.76 1.96 2.06 2.01 1.94 1.89 1.80 1.68 1.56 1.42 1.25 1.07 0.94 0.85 0.80 0.79 0.74 0.68 0.69 0.71 0.71 0.74 0.76 0.73 0.69 0.72
0.28 0.54 0.80 0.98 1.31 1.56 1.40 0.94 0.88 1.22 1.51 1.12 1.05 1.06 1.06 1.12 1.32 1.61 1.72 1.90 2.07 2.00 1.92 1.86 1.73 1.61 1.53 1.37 1.18 1.01 0.94 0.85 0.80 0.74 0.67 0.62 0.60 0.65 0.67 0.69 0.72 0.73 0.74 0.77
0.25 0.43 0.86 1.14 1.58 1.87 1.70 0.85 0.61 1.11 1.96 1.25 0.99 1.04 1.14 1.32 1.67 1.67 1.50 1.53 1.71 1.80 1.89 1.86 1.65 1.47 1.34 1.15 0.98 0.91 0.87 0.81 0.76 0.66 0.58 0.55 0.57 0.61 0.61 0.64 0.68 0.72 0.75 0.76
0.60 0.71 0.94 1.25 1.66 1.75 1.03 0.57 0.73 1.70 1.96 1.34 1.17 1.19 1.31 1.51 1.60 1.34 1.16 1.22 1.35 1.52 1.60 1.56 1.43 1.31 1.12 0.93 0.87 0.92 0.82 0.72 0.62 0.54 0.55 0.58 0.61 0.66 0.62 0.65 0.71 0.72 0.71 0.75
0.81 1.09 1.24 1.42 1.77 1.80 0.77 0.60 1.10 1.38 1.07 0.97 0.94 0.93 1.04 1.05 0.96 0.93 0.99 1.12 1.25 1.36 1.35 1.28 1.24 1.14 1.01 0.91 0.92 0.98 0.89 0.69 0.58 0.57 0.59 0.60 0.62 0.52 0.50 0.66 0.69 0.65 0.71 0.75
0.71 0.95 1.18 1.42 1.60 1.28 0.75 0.68 0.74 0.79 0.84 0.80 0.82 0.77 0.82 0.87 0.87 0.88 0.92 1.05 1.14 1.17 1.15 1.05 0.97 0.97 0.95 0.94 0.96 0.99 0.89 0.71 0.66 0.72 0.71 0.65 0.64 0.62 0.64 0.67 0.64 0.62 0.64 0.60
0.68 0.56 0.77 1.05 0.99 0.82 0.69 0.63 0.56 0.54 0.63 0.63 0.65 0.68 0.77 0.90 0.90 0.92 0.88 0.91 0.97 0.97 0.96 0.93 0.90 0.91 0.88 0.84 0.79 0.82 0.74 0.69 0.76 0.80 0.73 0.68 0.69 0.72 0.69 0.62 0.51 0.49 0.46 0.44
0.70 0.81 1.08 1.30 1.04 0.89 0.80 0.66 0.54 0.47 0.45 0.46 0.54 0.59 0.68 0.79 0.81 0.78 0.78 0.78 0.76 0.73 0.76 0.79 0.82 0.79 0.72 0.67 0.62 0.61 0.62 0.64 0.78 0.81 0.75 0.68 0.60 0.59 0.59 0.46 0.35 0.35 0.33 0.30
0.58 0.95 1.46 1.32 1.05 1.08 0.90 0.68 0.57 0.54 0.57 0.56 0.50 0.47 0.51 0.58 0.63 0.61 0.64 0.63 0.60 0.58 0.62 0.67 0.70 0.66 0.62 0.58 0.57 0.57 0.54 0.54 0.68 0.73 0.68 0.58 0.47 0.43 0.38 0.34 0.33 0.28 0.24 0.26